W4TTU-1 Weather Reports


time (UTC)temp
F
wind
direction
speed
knots
gust
knots
rain 1hr
in
rain 24hr
in
rain mn
in
humidity
%
barometer
mb
20260906223203 97 270 3.5 8.7 0.00 0.00 0.00 29 842.8
20260906221702 98 270 1.7 4.3 0.00 0.00 0.00 29 843.0
20260906220202 98 270 1.7 6.1 0.00 0.00 0.00 29 843.2
20260906213158 100 270 4.3 5.2 0.00 0.00 0.00 29 843.5
20260906211657 100 270 2.6 6.1 0.00 0.00 0.00 29 843.5
20260906210157 100 270 5.2 6.1 0.00 0.00 0.00 30 843.6
20260906204656 99 270 4.3 7.0 0.00 0.00 0.00 31 843.9
20260906203156 99 270 3.5 6.1 0.00 0.00 0.00 31 844.1
20260906201655 97 270 2.6 7.0 0.00 0.00 0.00 32 844.2
20260906200155 95 270 2.6 6.1 0.00 0.00 0.00 34 844.5
20260906194654 93 270 1.7 5.2 0.00 0.00 0.00 35 844.6
20260906193154 92 270 4.3 6.1 0.00 0.00 0.00 36 844.7
20260906191653 90 270 5.2 6.1 0.00 0.00 0.00 36 845.0
20260906190152 88 270 1.7 5.2 0.00 0.00 0.00 36 845.2
20260906184652 85 270 0.9 2.6 0.00 0.00 0.00 38 845.4
20260906183151 83 270 0.9 4.3 0.00 0.00 0.00 40 845.7
20260906181651 81 270 3.5 3.5 0.00 0.00 0.00 42 846.0
20260906180150 78 270 2.6 2.6 0.00 0.00 0.00 45 846.3
20260906174650 75 270 0.9 4.3 0.00 0.00 0.00 47 846.6
20260906173149 72 270 0.9 1.7 0.00 0.00 0.00 49 846.8
20260906171649 70 270 0.0 3.5 0.00 0.00 0.00 50 847.1
20260906170148 68 270 0.9 1.7 0.00 0.00 0.00 51 847.4
20260906164648 66 270 1.7 1.7 0.00 0.00 0.00 51 847.4
20260906163147 65 270 0.9 0.9 0.00 0.00 0.00 52 847.6
20260906161647 63 270 0.0 1.7 0.00 0.00 0.00 53 847.8
20260906160146 62 270 0.0 0.9 0.00 0.00 0.00 52 848.0
20260906154646 61 270 0.0 2.6 0.00 0.00 0.00 51 848.0
20260906153145 59 270 0.0 0.9 0.00 0.00 0.00 46 848.0
20260906151645 58 270 0.9 0.9 0.00 0.00 0.00 45 848.3
20260906150144 58 270 0.0 0.9 0.00 0.00 0.00 45 848.4
20260906144643 56 270 0.9 0.9 0.00 0.00 0.00 45 848.5
20260906143143 55 270 0.0 0.9 0.00 0.00 0.00 44 848.6
20260906141642 55 270 0.9 1.7 0.00 0.00 0.00 41 848.7
20260906140142 54 270 1.7 2.6 0.00 0.00 0.00 40 848.9
20260906134641 54 270 0.9 0.9 0.00 0.00 0.00 38 848.8
20260906133141 54 270 0.0 0.0 0.00 0.00 0.00 38 848.7
20260906131640 54 270 0.0 0.9 0.00 0.00 0.00 39 848.7
20260906130140 54 270 0.0 0.0 0.00 0.00 0.00 38 848.7
20260906124639 55 270 0.9 1.7 0.00 0.00 0.00 37 848.8
20260906123139 55 270 0.0 0.0 0.00 0.00 0.00 38 848.9
20260906121638 55 270 0.0 1.7 0.00 0.00 0.00 38 848.7
20260906120138 56 270 0.9 0.9 0.00 0.00 0.00 37 848.8
20260906114638 56 270 0.0 0.9 0.00 0.00 0.00 38 848.7
20260906113137 56 270 0.0 1.7 0.00 0.00 0.00 37 848.9
20260906111636 57 270 0.0 0.0 0.00 0.00 0.00 36 848.7
20260906110136 57 270 0.0 0.0 0.00 0.00 0.00 37 848.7
20260906104635 58 270 0.0 0.0 0.00 0.00 0.00 36 848.9
20260906103135 58 270 0.0 0.0 0.00 0.00 0.00 36 848.6
20260906101634 59 270 0.0 0.0 0.00 0.00 0.00 36 848.5
20260906100133 59 270 0.0 0.0 0.00 0.00 0.00 36 848.4
20260906094633 60 270 0.0 0.0 0.00 0.00 0.00 35 848.3
20260906093132 60 270 0.0 1.7 0.00 0.00 0.00 35 848.2
20260906091632 61 270 0.0 0.9 0.00 0.00 0.00 35 848.2
20260906090131 62 270 0.0 0.0 0.00 0.00 0.00 34 848.2
20260906084631 62 270 0.0 0.9 0.00 0.00 0.00 34 848.2
20260906083130 62 270 0.0 0.9 0.00 0.00 0.00 34 848.3
20260906081630 62 270 0.0 1.7 0.00 0.00 0.00 33 848.8
20260906080129 63 270 0.0 0.0 0.00 0.00 0.00 32 848.5
20260906074629 63 270 0.0 0.0 0.00 0.00 0.00 33 848.4
20260906073129 64 270 0.0 0.9 0.00 0.00 0.00 33 848.3
20260906071628 64 270 0.0 0.9 0.00 0.00 0.00 33 848.2
20260906070127 65 270 0.0 0.9 0.00 0.00 0.00 32 848.2
20260906064627 65 270 0.0 0.0 0.00 0.00 0.00 32 848.4
20260906063126 66 270 0.0 0.9 0.00 0.00 0.00 32 848.4
20260906061626 67 270 0.0 0.0 0.00 0.00 0.00 32 848.4
20260906060125 67 270 0.0 2.6 0.00 0.00 0.00 32 848.2
20260906054624 68 270 0.0 0.9 0.00 0.00 0.00 31 848.2
20260906053124 69 270 0.9 1.7 0.00 0.00 0.00 31 848.2
20260906051623 70 270 0.9 3.5 0.00 0.00 0.00 29 848.0
20260906050123 71 270 0.0 1.7 0.00 0.00 0.00 29 848.1
20260906044622 72 270 0.9 0.9 0.00 0.00 0.00 29 848.1
20260906043122 73 270 0.0 0.9 0.00 0.00 0.00 27 848.1
20260906041621 74 270 0.0 2.6 0.00 0.00 0.00 28 848.1
20260906040121 76 270 0.0 1.7 0.00 0.00 0.00 27 848.2
20260906034620 77 270 0.0 2.6 0.00 0.00 0.00 26 848.0
20260906033120 79 270 2.6 2.6 0.00 0.00 0.00 26 847.9
20260906031619 81 270 0.0 1.7 0.00 0.00 0.00 25 847.7
20260906030119 83 270 2.6 2.6 0.00 0.00 0.00 24 847.7
20260906024618 85 270 0.0 2.6 0.00 0.00 0.00 23 847.5
20260906023118 88 270 0.0 1.7 0.00 0.00 0.00 23 847.3
20260906021617 90 270 1.7 3.5 0.00 0.00 0.00 22 847.1
20260906020117 93 270 0.0 1.7 0.00 0.00 0.00 21 846.9
20260906014616 96 270 0.9 2.6 0.00 0.00 0.00 22 846.9
20260906013116 99 270 3.5 3.5 0.00 0.00 0.00 21 846.8
20260906011615 102 270 1.7 2.6 0.00 0.00 0.00 21 846.9
20260906010114 103 270 3.5 3.5 0.00 0.00 0.00 22 846.8
20260906004614 104 270 3.5 3.5 0.00 0.00 0.00 22 846.7
20260906003113 105 270 2.6 5.2 0.00 0.00 0.00 21 846.6
20260906001613 106 270 3.5 5.2 0.00 0.00 0.00 22 846.6
20260906000113 107 270 2.6 9.6 0.00 0.00 0.00 22 846.6
20260905234612 107 270 2.6 7.0 0.00 0.00 0.00 21 846.7
20260905233111 107 270 1.7 4.3 0.00 0.00 0.00 21 846.6
20260905231611 107 270 2.6 5.2 0.00 0.00 0.00 21 846.7
20260905230110 107 270 4.3 5.2 0.00 0.00 0.00 22 846.7
20260905224610 107 270 2.6 6.1 0.00 0.00 0.00 22 846.8